Year,Month,Day,Hour,Minute,Value (Times are PST for insolation in W/m^2)
2022,11,01,00,00,0.00
2022,11,01,00,01,0.00
2022,11,01,00,02,0.00
2022,11,01,00,03,0.00
2022,11,01,00,04,0.00
2022,11,01,00,05,0.00
2022,11,01,00,06,0.00
2022,11,01,00,07,0.00
2022,11,01,00,08,0.00
2022,11,01,00,09,0.00
2022,11,01,00,10,0.00
2022,11,01,00,11,0.00
2022,11,01,00,12,0.00
2022,11,01,00,13,0.00
2022,11,01,00,14,0.00
2022,11,01,00,15,0.00
2022,11,01,00,16,0.00
2022,11,01,00,17,0.00
2022,11,01,00,18,0.00
2022,11,01,00,19,0.00
2022,11,01,00,20,0.00
2022,11,01,00,21,0.00
2022,11,01,00,22,0.00
2022,11,01,00,23,0.00
2022,11,01,00,24,0.00
2022,11,01,00,25,0.00
2022,11,01,00,26,0.00
2022,11,01,00,27,0.00
2022,11,01,00,28,0.00
2022,11,01,00,29,0.00
2022,11,01,00,30,0.00
2022,11,01,00,31,0.00
2022,11,01,00,32,0.00
2022,11,01,00,33,0.00
2022,11,01,00,34,0.00
2022,11,01,00,35,0.00
2022,11,01,00,36,0.00
2022,11,01,00,37,0.00
2022,11,01,00,38,0.00
2022,11,01,00,39,0.00
2022,11,01,00,40,0.00
2022,11,01,00,41,0.00
2022,11,01,00,42,0.00
2022,11,01,00,43,0.00
2022,11,01,00,44,0.00
2022,11,01,00,45,0.00
2022,11,01,00,46,0.00
2022,11,01,00,47,0.00
2022,11,01,00,48,0.00
2022,11,01,00,49,0.00
2022,11,01,00,50,0.00
2022,11,01,00,51,0.00
2022,11,01,00,52,0.00
2022,11,01,00,53,0.00
2022,11,01,00,54,0.00
2022,11,01,00,55,0.00
2022,11,01,00,56,0.00
2022,11,01,00,57,0.00
2022,11,01,00,58,0.00
2022,11,01,00,59,0.00
2022,11,01,01,00,0.00
2022,11,01,01,01,0.00
2022,11,01,01,02,0.00
2022,11,01,01,03,0.00
2022,11,01,01,04,0.00
2022,11,01,01,05,0.00
2022,11,01,01,06,0.00
2022,11,01,01,07,0.00
2022,11,01,01,08,0.00
2022,11,01,01,09,0.00
2022,11,01,01,10,0.00
2022,11,01,01,11,0.00
2022,11,01,01,12,0.00
2022,11,01,01,13,0.00
2022,11,01,01,14,0.00
2022,11,01,01,15,0.00
2022,11,01,01,16,0.00
2022,11,01,01,17,0.00
2022,11,01,01,18,0.00
2022,11,01,01,19,0.00
2022,11,01,01,20,0.00
2022,11,01,01,21,0.00
2022,11,01,01,22,0.00
2022,11,01,01,23,0.00
2022,11,01,01,24,0.00
2022,11,01,01,25,0.00
2022,11,01,01,26,0.00
2022,11,01,01,27,0.00
2022,11,01,01,28,0.00
2022,11,01,01,29,0.00
2022,11,01,01,30,0.00
2022,11,01,01,31,0.00
2022,11,01,01,32,0.00
2022,11,01,01,33,0.00
2022,11,01,01,34,0.00
2022,11,01,01,35,0.00
2022,11,01,01,36,0.00
2022,11,01,01,37,0.00
2022,11,01,01,38,0.00
2022,11,01,01,39,0.00
2022,11,01,01,40,0.00
2022,11,01,01,41,0.00
2022,11,01,01,42,0.00
2022,11,01,01,43,0.00
2022,11,01,01,44,0.00
2022,11,01,01,45,0.00
2022,11,01,01,46,0.00
2022,11,01,01,47,0.00
2022,11,01,01,48,0.00
2022,11,01,01,49,0.00
2022,11,01,01,50,0.00
2022,11,01,01,51,0.00
2022,11,01,01,52,0.00
2022,11,01,01,53,0.00
2022,11,01,01,54,0.00
2022,11,01,01,55,0.00
2022,11,01,01,56,0.00
2022,11,01,01,57,0.00
2022,11,01,01,58,0.00
2022,11,01,01,59,0.00
2022,11,01,02,00,0.00
2022,11,01,02,01,0.00
2022,11,01,02,02,0.00
2022,11,01,02,03,0.00
2022,11,01,02,04,0.00
2022,11,01,02,05,0.00
2022,11,01,02,06,0.00
2022,11,01,02,07,0.00
2022,11,01,02,08,0.00
2022,11,01,02,09,0.00
2022,11,01,02,10,0.00
2022,11,01,02,11,0.00
2022,11,01,02,12,0.00
2022,11,01,02,13,0.00
2022,11,01,02,14,0.00
2022,11,01,02,15,0.00
2022,11,01,02,16,0.00
2022,11,01,02,17,0.00
2022,11,01,02,18,0.00
2022,11,01,02,19,0.00
2022,11,01,02,20,0.00
2022,11,01,02,21,0.00
2022,11,01,02,22,0.00
2022,11,01,02,23,0.00
2022,11,01,02,24,0.00
2022,11,01,02,25,0.00
2022,11,01,02,26,0.00
2022,11,01,02,27,0.00
2022,11,01,02,28,0.00
2022,11,01,02,29,0.00
2022,11,01,02,30,0.00
2022,11,01,02,31,0.00
2022,11,01,02,32,0.00
2022,11,01,02,33,0.00
2022,11,01,02,34,0.00
2022,11,01,02,35,0.00
2022,11,01,02,36,0.00
2022,11,01,02,37,0.00
2022,11,01,02,38,0.00
2022,11,01,02,39,0.00
2022,11,01,02,40,0.00
2022,11,01,02,41,0.00
2022,11,01,02,42,0.00
2022,11,01,02,43,0.00
2022,11,01,02,44,0.00
2022,11,01,02,45,0.00
2022,11,01,02,46,0.00
2022,11,01,02,47,0.00
2022,11,01,02,48,0.00
2022,11,01,02,49,0.00
2022,11,01,02,50,0.00
2022,11,01,02,51,0.00
2022,11,01,02,52,0.00
2022,11,01,02,53,0.00
2022,11,01,02,54,0.00
2022,11,01,02,55,0.00
2022,11,01,02,56,0.00
2022,11,01,02,57,0.00
2022,11,01,02,58,0.00
2022,11,01,02,59,0.00
2022,11,01,03,00,0.00
2022,11,01,03,01,0.00
2022,11,01,03,02,0.00
2022,11,01,03,03,0.00
2022,11,01,03,04,0.00
2022,11,01,03,05,0.00
2022,11,01,03,06,0.00
2022,11,01,03,07,0.00
2022,11,01,03,08,0.00
2022,11,01,03,09,0.00
2022,11,01,03,10,0.00
2022,11,01,03,11,0.00
2022,11,01,03,12,0.00
2022,11,01,03,13,0.00
2022,11,01,03,14,0.00
2022,11,01,03,15,0.00
2022,11,01,03,16,0.00
2022,11,01,03,17,0.00
2022,11,01,03,18,0.00
2022,11,01,03,19,0.00
2022,11,01,03,20,0.00
2022,11,01,03,21,0.00
2022,11,01,03,22,0.00
2022,11,01,03,23,0.00
2022,11,01,03,24,0.00
2022,11,01,03,25,0.00
2022,11,01,03,26,0.00
2022,11,01,03,27,0.00
2022,11,01,03,28,0.00
2022,11,01,03,29,0.00
2022,11,01,03,30,0.00
2022,11,01,03,31,0.00
2022,11,01,03,32,0.00
2022,11,01,03,33,0.00
2022,11,01,03,34,0.00
2022,11,01,03,35,0.00
2022,11,01,03,36,0.00
2022,11,01,03,37,0.00
2022,11,01,03,38,0.00
2022,11,01,03,39,0.00
2022,11,01,03,40,0.00
2022,11,01,03,41,0.00
2022,11,01,03,42,0.00
2022,11,01,03,43,0.00
2022,11,01,03,44,0.00
2022,11,01,03,45,0.00
2022,11,01,03,46,0.00
2022,11,01,03,47,0.00
2022,11,01,03,48,0.00
2022,11,01,03,49,0.00
2022,11,01,03,50,0.00
2022,11,01,03,51,0.00
2022,11,01,03,52,0.00
2022,11,01,03,53,0.00
2022,11,01,03,54,0.00
2022,11,01,03,55,0.00
2022,11,01,03,56,0.00
2022,11,01,03,57,0.00
2022,11,01,03,58,0.00
2022,11,01,03,59,0.00
2022,11,01,04,00,0.00
2022,11,01,04,01,0.00
2022,11,01,04,02,0.00
2022,11,01,04,03,0.00
2022,11,01,04,04,0.00
2022,11,01,04,05,0.00
2022,11,01,04,06,0.00
2022,11,01,04,07,0.00
2022,11,01,04,08,0.00
2022,11,01,04,09,0.00
2022,11,01,04,10,0.00
2022,11,01,04,11,0.00
2022,11,01,04,12,0.00
2022,11,01,04,13,0.00
2022,11,01,04,14,0.00
2022,11,01,04,15,0.00
2022,11,01,04,16,0.00
2022,11,01,04,17,0.00
2022,11,01,04,18,0.00
2022,11,01,04,19,0.00
2022,11,01,04,20,0.00
2022,11,01,04,21,0.00
2022,11,01,04,22,0.00
2022,11,01,04,23,0.00
2022,11,01,04,24,0.00
2022,11,01,04,25,0.00
2022,11,01,04,26,0.00
2022,11,01,04,27,0.00
2022,11,01,04,28,0.00
2022,11,01,04,29,0.00
2022,11,01,04,30,0.00
2022,11,01,04,31,0.00
2022,11,01,04,32,0.00
2022,11,01,04,33,0.00
2022,11,01,04,34,0.00
2022,11,01,04,35,0.00
2022,11,01,04,36,0.00
2022,11,01,04,37,0.00
2022,11,01,04,38,0.00
2022,11,01,04,39,0.00
2022,11,01,04,40,0.00
2022,11,01,04,41,0.00
2022,11,01,04,42,0.00
2022,11,01,04,43,0.00
2022,11,01,04,44,0.00
2022,11,01,04,45,0.00
2022,11,01,04,46,0.00
2022,11,01,04,47,0.00
2022,11,01,04,48,0.00
2022,11,01,04,49,0.00
2022,11,01,04,50,0.00
2022,11,01,04,51,0.00
2022,11,01,04,52,0.00
2022,11,01,04,53,0.00
2022,11,01,04,54,0.00
2022,11,01,04,55,0.00
2022,11,01,04,56,0.00
2022,11,01,04,57,0.00
2022,11,01,04,58,0.00
2022,11,01,04,59,0.00
2022,11,01,05,00,0.00
2022,11,01,05,01,0.00
2022,11,01,05,02,0.00
2022,11,01,05,03,0.00
2022,11,01,05,04,0.00
2022,11,01,05,05,0.00
2022,11,01,05,06,0.00
2022,11,01,05,07,0.00
2022,11,01,05,08,0.00
2022,11,01,05,09,0.00
2022,11,01,05,10,0.00
2022,11,01,05,11,0.00
2022,11,01,05,12,0.00
2022,11,01,05,13,0.00
2022,11,01,05,14,0.00
2022,11,01,05,15,0.00
2022,11,01,05,16,0.00
2022,11,01,05,17,0.00
2022,11,01,05,18,0.00
2022,11,01,05,19,0.00
2022,11,01,05,20,0.00
2022,11,01,05,21,0.00
2022,11,01,05,22,0.00
2022,11,01,05,23,0.00
2022,11,01,05,24,0.00
2022,11,01,05,25,0.00
2022,11,01,05,26,0.00
2022,11,01,05,27,0.00
2022,11,01,05,28,0.00
2022,11,01,05,29,0.00
2022,11,01,05,30,0.00
2022,11,01,05,31,0.00
2022,11,01,05,32,0.00
2022,11,01,05,33,0.00
2022,11,01,05,34,0.00
2022,11,01,05,35,0.00
2022,11,01,05,36,0.00
2022,11,01,05,37,0.00
2022,11,01,05,38,0.00
2022,11,01,05,39,0.00
2022,11,01,05,40,0.00
2022,11,01,05,41,0.00
2022,11,01,05,42,0.00
2022,11,01,05,43,0.00
2022,11,01,05,44,0.00
2022,11,01,05,45,0.00
2022,11,01,05,46,0.00
2022,11,01,05,47,0.00
2022,11,01,05,48,0.00
2022,11,01,05,49,0.00
2022,11,01,05,50,0.00
2022,11,01,05,51,0.00
2022,11,01,05,52,0.00
2022,11,01,05,53,0.00
2022,11,01,05,54,0.00
2022,11,01,05,55,0.00
2022,11,01,05,56,0.00
2022,11,01,05,57,0.00
2022,11,01,05,58,0.00
2022,11,01,05,59,0.00
2022,11,01,06,00,0.00
2022,11,01,06,01,0.00
2022,11,01,06,02,0.00
2022,11,01,06,03,0.00
2022,11,01,06,04,0.00
2022,11,01,06,05,0.00
2022,11,01,06,06,0.00
2022,11,01,06,07,0.00
2022,11,01,06,08,0.00
2022,11,01,06,09,0.00
2022,11,01,06,10,0.00
2022,11,01,06,11,0.00
2022,11,01,06,12,0.00
2022,11,01,06,13,0.00
2022,11,01,06,14,0.00
2022,11,01,06,15,0.00
2022,11,01,06,16,0.00
2022,11,01,06,17,0.00
2022,11,01,06,18,0.00
2022,11,01,06,19,0.00
2022,11,01,06,20,0.00
2022,11,01,06,21,0.00
2022,11,01,06,22,0.00
2022,11,01,06,23,0.00
2022,11,01,06,24,0.00
2022,11,01,06,25,0.00
2022,11,01,06,26,0.00
2022,11,01,06,27,0.00
2022,11,01,06,28,0.00
2022,11,01,06,29,0.00
2022,11,01,06,30,0.00
2022,11,01,06,31,0.00
2022,11,01,06,32,0.00
2022,11,01,06,33,0.00
2022,11,01,06,34,0.00
2022,11,01,06,35,0.00
2022,11,01,06,36,0.00
2022,11,01,06,37,0.00
2022,11,01,06,38,0.00
2022,11,01,06,39,0.00
2022,11,01,06,40,0.00
2022,11,01,06,41,0.00
2022,11,01,06,42,0.00
2022,11,01,06,43,0.00
2022,11,01,06,44,0.00
2022,11,01,06,45,0.00
2022,11,01,06,46,0.00
2022,11,01,06,47,0.00
2022,11,01,06,48,0.00
2022,11,01,06,49,0.00
2022,11,01,06,50,0.00
2022,11,01,06,51,0.00
2022,11,01,06,52,0.00
2022,11,01,06,53,0.00
2022,11,01,06,54,0.00
2022,11,01,06,55,0.00
2022,11,01,06,56,0.00
2022,11,01,06,57,0.00
2022,11,01,06,58,0.00
2022,11,01,06,59,0.00
2022,11,01,07,00,0.00
2022,11,01,07,01,0.00
2022,11,01,07,02,0.00
2022,11,01,07,03,0.00
2022,11,01,07,04,0.00
2022,11,01,07,05,0.00
2022,11,01,07,06,0.00
2022,11,01,07,07,0.00
2022,11,01,07,08,0.00
2022,11,01,07,09,0.00
2022,11,01,07,10,0.00
2022,11,01,07,11,0.00
2022,11,01,07,12,0.00
2022,11,01,07,13,0.00
2022,11,01,07,14,0.00
2022,11,01,07,15,0.00
2022,11,01,07,16,0.00
2022,11,01,07,17,0.00
2022,11,01,07,18,0.00
2022,11,01,07,19,0.00
2022,11,01,07,20,0.00
2022,11,01,07,21,0.00
2022,11,01,07,22,0.00
2022,11,01,07,23,0.00
2022,11,01,07,24,0.00
2022,11,01,07,25,0.00
2022,11,01,07,26,0.00
2022,11,01,07,27,0.00
2022,11,01,07,28,0.00
2022,11,01,07,29,0.00
2022,11,01,07,30,0.00
2022,11,01,07,31,0.00
2022,11,01,07,32,0.00
2022,11,01,07,33,0.00
2022,11,01,07,34,0.00
2022,11,01,07,35,0.00
2022,11,01,07,36,0.00
2022,11,01,07,37,0.00
2022,11,01,07,38,0.00
2022,11,01,07,39,0.00
2022,11,01,07,40,0.00
2022,11,01,07,41,0.00
2022,11,01,07,42,0.00
2022,11,01,07,43,0.00
2022,11,01,07,44,0.00
2022,11,01,07,45,0.00
2022,11,01,07,46,0.00
2022,11,01,07,47,0.00
2022,11,01,07,48,0.00
2022,11,01,07,49,0.00
2022,11,01,07,50,0.00
2022,11,01,07,51,0.00
2022,11,01,07,52,0.00
2022,11,01,07,53,0.00
2022,11,01,07,54,0.00
2022,11,01,07,55,0.00
2022,11,01,07,56,0.00
2022,11,01,07,57,0.00
2022,11,01,07,58,0.00
2022,11,01,07,59,0.00
2022,11,01,08,00,0.00
2022,11,01,08,01,0.00
2022,11,01,08,02,0.00
2022,11,01,08,03,0.00
2022,11,01,08,04,0.00
2022,11,01,08,05,4.50
2022,11,01,08,06,5.00
2022,11,01,08,07,5.50
2022,11,01,08,08,7.00
2022,11,01,08,09,8.00
2022,11,01,08,10,10.30
2022,11,01,08,11,11.80
2022,11,01,08,12,14.00
2022,11,01,08,13,16.30
2022,11,01,08,14,18.30
2022,11,01,08,15,18.60
2022,11,01,08,16,18.00
2022,11,01,08,17,16.70
2022,11,01,08,18,14.40
2022,11,01,08,19,14.00
2022,11,01,08,20,14.00
2022,11,01,08,21,14.00
2022,11,01,08,22,14.00
2022,11,01,08,23,15.10
2022,11,01,08,24,17.30
2022,11,01,08,25,18.00
2022,11,01,08,26,18.90
2022,11,01,08,27,19.00
2022,11,01,08,28,19.00
2022,11,01,08,29,19.00
2022,11,01,08,30,19.00
2022,11,01,08,31,19.00
2022,11,01,08,32,20.60
2022,11,01,08,33,21.10
2022,11,01,08,34,23.30
2022,11,01,08,35,25.00
2022,11,01,08,36,25.00
2022,11,01,08,37,25.00
2022,11,01,08,38,25.00
2022,11,01,08,39,25.00
2022,11,01,08,40,25.10
2022,11,01,08,41,26.00
2022,11,01,08,42,26.00
2022,11,01,08,43,26.00
2022,11,01,08,44,26.00
2022,11,01,08,45,27.30
2022,11,01,08,46,29.60
2022,11,01,08,47,32.90
2022,11,01,08,48,37.30
2022,11,01,08,49,39.30
2022,11,01,08,50,40.80
2022,11,01,08,51,42.00
2022,11,01,08,52,40.70
2022,11,01,08,53,39.20
2022,11,01,08,54,37.10
2022,11,01,08,55,34.60
2022,11,01,08,56,33.00
2022,11,01,08,57,33.70
2022,11,01,08,58,36.10
2022,11,01,08,59,38.40
2022,11,01,09,00,41.40
2022,11,01,09,01,45.80
2022,11,01,09,02,51.50
2022,11,01,09,03,55.10
2022,11,01,09,04,59.60
2022,11,01,09,05,63.60
2022,11,01,09,06,67.70
2022,11,01,09,07,72.90
2022,11,01,09,08,75.80
2022,11,01,09,09,76.20
2022,11,01,09,10,77.00
2022,11,01,09,11,77.80
2022,11,01,09,12,79.00
2022,11,01,09,13,79.00
2022,11,01,09,14,79.00
2022,11,01,09,15,77.30
2022,11,01,09,16,79.00
2022,11,01,09,17,78.50
2022,11,01,09,18,77.00
2022,11,01,09,19,78.00
2022,11,01,09,20,79.00
2022,11,01,09,21,77.40
2022,11,01,09,22,75.70
2022,11,01,09,23,69.50
2022,11,01,09,24,66.40
2022,11,01,09,25,65.00
2022,11,01,09,26,63.90
2022,11,01,09,27,66.80
2022,11,01,09,28,75.20
2022,11,01,09,29,87.30
2022,11,01,09,30,97.20
2022,11,01,09,31,98.00
2022,11,01,09,32,97.60
2022,11,01,09,33,93.80
2022,11,01,09,34,90.30
2022,11,01,09,35,86.80
2022,11,01,09,36,84.20
2022,11,01,09,37,83.20
2022,11,01,09,38,84.00
2022,11,01,09,39,83.60
2022,11,01,09,40,81.90
2022,11,01,09,41,79.70
2022,11,01,09,42,79.00
2022,11,01,09,43,80.80
2022,11,01,09,44,83.20
2022,11,01,09,45,84.00
2022,11,01,09,46,84.00
2022,11,01,09,47,85.10
2022,11,01,09,48,89.30
2022,11,01,09,49,90.20
2022,11,01,09,50,88.10
2022,11,01,09,51,88.30
2022,11,01,09,52,90.30
2022,11,01,09,53,91.00
2022,11,01,09,54,98.40
2022,11,01,09,55,112.50
2022,11,01,09,56,125.50
2022,11,01,09,57,130.70
2022,11,01,09,58,113.20
2022,11,01,09,59,108.50
2022,11,01,10,00,107.00
2022,11,01,10,01,113.80
2022,11,01,10,02,149.70
2022,11,01,10,03,157.70
2022,11,01,10,04,121.90
2022,11,01,10,05,117.20
2022,11,01,10,06,111.40
2022,11,01,10,07,108.70
2022,11,01,10,08,117.30
2022,11,01,10,09,125.70
2022,11,01,10,10,151.80
2022,11,01,10,11,126.50
2022,11,01,10,12,124.00
2022,11,01,10,13,140.40
2022,11,01,10,14,140.80
2022,11,01,10,15,128.80
2022,11,01,10,16,130.90
2022,11,01,10,17,156.20
2022,11,01,10,18,162.70
2022,11,01,10,19,163.00
2022,11,01,10,20,161.40
2022,11,01,10,21,154.20
2022,11,01,10,22,144.80
2022,11,01,10,23,141.70
2022,11,01,10,24,133.70
2022,11,01,10,25,138.30
2022,11,01,10,26,145.40
2022,11,01,10,27,154.90
2022,11,01,10,28,155.60
2022,11,01,10,29,152.20
2022,11,01,10,30,173.10
2022,11,01,10,31,170.70
2022,11,01,10,32,160.30
2022,11,01,10,33,150.20
2022,11,01,10,34,152.40
2022,11,01,10,35,167.50
2022,11,01,10,36,177.10
2022,11,01,10,37,188.00
2022,11,01,10,38,188.00
2022,11,01,10,39,188.00
2022,11,01,10,40,316.20
2022,11,01,10,41,285.00
2022,11,01,10,42,284.20
2022,11,01,10,43,283.00
2022,11,01,10,44,275.50
2022,11,01,10,45,296.90
2022,11,01,10,46,372.40
2022,11,01,10,47,378.10
2022,11,01,10,48,335.20
2022,11,01,10,49,369.10
2022,11,01,10,50,373.90
2022,11,01,10,51,429.00
2022,11,01,10,52,463.20
2022,11,01,10,53,465.90
2022,11,01,10,54,393.90
2022,11,01,10,55,445.90
2022,11,01,10,56,434.90
2022,11,01,10,57,467.50
2022,11,01,10,58,497.90
2022,11,01,10,59,473.80
2022,11,01,11,00,466.00
2022,11,01,11,01,232.00
2022,11,01,11,02,244.40
2022,11,01,11,03,296.20
2022,11,01,11,04,323.60
2022,11,01,11,05,358.50
2022,11,01,11,06,404.10
2022,11,01,11,07,411.10
2022,11,01,11,08,383.80
2022,11,01,11,09,397.90
2022,11,01,11,10,388.30
2022,11,01,11,11,391.10
2022,11,01,11,12,383.20
2022,11,01,11,13,378.00
2022,11,01,11,14,380.40
2022,11,01,11,15,393.10
2022,11,01,11,16,399.60
2022,11,01,11,17,407.70
2022,11,01,11,18,417.00
2022,11,01,11,19,247.70
2022,11,01,11,20,160.10
2022,11,01,11,21,177.10
2022,11,01,11,22,431.00
2022,11,01,11,23,437.10
2022,11,01,11,24,456.00
2022,11,01,11,25,460.10
2022,11,01,11,26,461.60
2022,11,01,11,27,472.30
2022,11,01,11,28,473.50
2022,11,01,11,29,479.70
2022,11,01,11,30,492.70
2022,11,01,11,31,502.20
2022,11,01,11,32,499.00
2022,11,01,11,33,500.80
2022,11,01,11,34,503.00
2022,11,01,11,35,499.40
2022,11,01,11,36,503.20
2022,11,01,11,37,519.00
2022,11,01,11,38,525.10
2022,11,01,11,39,514.50
2022,11,01,11,40,513.90
2022,11,01,11,41,525.90
2022,11,01,11,42,541.50
2022,11,01,11,43,507.20
2022,11,01,11,44,338.50
2022,11,01,11,45,397.00
2022,11,01,11,46,397.00
2022,11,01,11,47,491.00
2022,11,01,11,48,536.40
2022,11,01,11,49,536.00
2022,11,01,11,50,535.20
2022,11,01,11,51,531.00
2022,11,01,11,52,425.60
2022,11,01,11,53,252.60
2022,11,01,11,54,259.00
2022,11,01,11,55,265.00
2022,11,01,11,56,265.00
2022,11,01,11,57,612.50
2022,11,01,11,58,604.80
2022,11,01,11,59,591.40
2022,11,01,12,00,582.50
2022,11,01,12,01,576.80
2022,11,01,12,02,565.50
2022,11,01,12,03,555.80
2022,11,01,12,04,555.30
2022,11,01,12,05,557.60
2022,11,01,12,06,559.80
2022,11,01,12,07,528.40
2022,11,01,12,08,555.80
2022,11,01,12,09,601.00
2022,11,01,12,10,611.50
2022,11,01,12,11,615.80
2022,11,01,12,12,616.60
2022,11,01,12,13,640.70
2022,11,01,12,14,656.00
2022,11,01,12,15,656.00
2022,11,01,12,16,656.00
2022,11,01,12,17,630.90
2022,11,01,12,18,549.20
2022,11,01,12,19,561.00
2022,11,01,12,20,607.40
2022,11,01,12,21,669.50
2022,11,01,12,22,643.20
2022,11,01,12,23,578.10
2022,11,01,12,24,480.70
2022,11,01,12,25,479.00
2022,11,01,12,26,522.70
2022,11,01,12,27,444.50
2022,11,01,12,28,445.00
2022,11,01,12,29,526.80
2022,11,01,12,30,521.50
2022,11,01,12,31,473.80
2022,11,01,12,32,553.40
2022,11,01,12,33,565.70
2022,11,01,12,34,548.20
2022,11,01,12,35,540.70
2022,11,01,12,36,488.60
2022,11,01,12,37,487.70
2022,11,01,12,38,460.60
2022,11,01,12,39,468.00
2022,11,01,12,40,424.80
2022,11,01,12,41,289.60
2022,11,01,12,42,251.30
2022,11,01,12,43,229.10
2022,11,01,12,44,226.60
2022,11,01,12,45,211.50
2022,11,01,12,46,234.70
2022,11,01,12,47,308.00
2022,11,01,12,48,267.60
2022,11,01,12,49,254.00
2022,11,01,12,50,353.00
2022,11,01,12,51,363.60
2022,11,01,12,52,320.20
2022,11,01,12,53,246.30
2022,11,01,12,54,223.40
2022,11,01,12,55,215.20
2022,11,01,12,56,192.00
2022,11,01,12,57,293.70
2022,11,01,12,58,363.30
2022,11,01,12,59,295.80
2022,11,01,13,00,294.20
2022,11,01,13,01,288.50
2022,11,01,13,02,288.10
2022,11,01,13,03,263.10
2022,11,01,13,04,274.00
2022,11,01,13,05,432.70
2022,11,01,13,06,474.80
2022,11,01,13,07,466.70
2022,11,01,13,08,465.80
2022,11,01,13,09,561.70
2022,11,01,13,10,585.50
2022,11,01,13,11,552.00
2022,11,01,13,12,552.00
2022,11,01,13,13,579.20
2022,11,01,13,14,508.00
2022,11,01,13,15,549.40
2022,11,01,13,16,657.80
2022,11,01,13,17,612.20
2022,11,01,13,18,570.00
2022,11,01,13,19,507.00
2022,11,01,13,20,452.30
2022,11,01,13,21,408.90
2022,11,01,13,22,376.50
2022,11,01,13,23,404.50
2022,11,01,13,24,407.40
2022,11,01,13,25,388.00
2022,11,01,13,26,295.60
2022,11,01,13,27,272.60
2022,11,01,13,28,299.30
2022,11,01,13,29,290.00
2022,11,01,13,30,406.20
2022,11,01,13,31,514.30
2022,11,01,13,32,497.60
2022,11,01,13,33,512.00
2022,11,01,13,34,512.00
2022,11,01,13,35,495.50
2022,11,01,13,36,413.00
2022,11,01,13,37,373.80
2022,11,01,13,38,316.30
2022,11,01,13,39,315.00
2022,11,01,13,40,313.60
2022,11,01,13,41,347.50
2022,11,01,13,42,456.00
2022,11,01,13,43,527.20
2022,11,01,13,44,486.60
2022,11,01,13,45,427.90
2022,11,01,13,46,400.30
2022,11,01,13,47,397.00
2022,11,01,13,48,459.00
2022,11,01,13,49,501.90
2022,11,01,13,50,514.60
2022,11,01,13,51,541.10
2022,11,01,13,52,539.60
2022,11,01,13,53,539.60
2022,11,01,13,54,511.70
2022,11,01,13,55,494.60
2022,11,01,13,56,481.10
2022,11,01,13,57,473.90
2022,11,01,13,58,465.40
2022,11,01,13,59,458.90
2022,11,01,14,00,454.90
2022,11,01,14,01,450.80
2022,11,01,14,02,447.80
2022,11,01,14,03,440.70
2022,11,01,14,04,438.70
2022,11,01,14,05,437.10
2022,11,01,14,06,437.60
2022,11,01,14,07,439.00
2022,11,01,14,08,439.00
2022,11,01,14,09,436.10
2022,11,01,14,10,429.30
2022,11,01,14,11,404.00
2022,11,01,14,12,404.00
2022,11,01,14,13,281.90
2022,11,01,14,14,172.00
2022,11,01,14,15,367.80
2022,11,01,14,16,420.00
2022,11,01,14,17,422.50
2022,11,01,14,18,424.20
2022,11,01,14,19,422.00
2022,11,01,14,20,422.00
2022,11,01,14,21,420.70
2022,11,01,14,22,423.20
2022,11,01,14,23,430.60
2022,11,01,14,24,434.30
2022,11,01,14,25,435.50
2022,11,01,14,26,432.70
2022,11,01,14,27,427.80
2022,11,01,14,28,420.20
2022,11,01,14,29,417.20
2022,11,01,14,30,413.30
2022,11,01,14,31,410.80
2022,11,01,14,32,408.40
2022,11,01,14,33,402.90
2022,11,01,14,34,399.90
2022,11,01,14,35,397.70
2022,11,01,14,36,396.20
2022,11,01,14,37,396.00
2022,11,01,14,38,400.40
2022,11,01,14,39,409.30
2022,11,01,14,40,413.80
2022,11,01,14,41,416.60
2022,11,01,14,42,418.00
2022,11,01,14,43,415.60
2022,11,01,14,44,407.00
2022,11,01,14,45,394.70
2022,11,01,14,46,386.50
2022,11,01,14,47,381.20
2022,11,01,14,48,375.80
2022,11,01,14,49,372.00
2022,11,01,14,50,369.40
2022,11,01,14,51,366.40
2022,11,01,14,52,366.80
2022,11,01,14,53,365.40
2022,11,01,14,54,364.00
2022,11,01,14,55,362.00
2022,11,01,14,56,359.40
2022,11,01,14,57,357.40
2022,11,01,14,58,355.10
2022,11,01,14,59,356.40
2022,11,01,15,00,352.10
2022,11,01,15,01,342.20
2022,11,01,15,02,332.10
2022,11,01,15,03,338.80
2022,11,01,15,04,346.50
2022,11,01,15,05,354.60
2022,11,01,15,06,323.00
2022,11,01,15,07,256.40
2022,11,01,15,08,72.50
2022,11,01,15,09,76.00
2022,11,01,15,10,243.40
2022,11,01,15,11,342.60
2022,11,01,15,12,343.00
2022,11,01,15,13,96.30
2022,11,01,15,14,130.00
2022,11,01,15,15,210.80
2022,11,01,15,16,329.40
2022,11,01,15,17,307.80
2022,11,01,15,18,319.00
2022,11,01,15,19,321.90
2022,11,01,15,20,317.70
2022,11,01,15,21,315.70
2022,11,01,15,22,314.20
2022,11,01,15,23,310.50
2022,11,01,15,24,305.50
2022,11,01,15,25,302.50
2022,11,01,15,26,302.00
2022,11,01,15,27,301.00
2022,11,01,15,28,300.40
2022,11,01,15,29,297.30
2022,11,01,15,30,294.50
2022,11,01,15,31,294.00
2022,11,01,15,32,292.40
2022,11,01,15,33,293.90
2022,11,01,15,34,292.30
2022,11,01,15,35,286.00
2022,11,01,15,36,293.70
2022,11,01,15,37,290.90
2022,11,01,15,38,288.10
2022,11,01,15,39,287.00
2022,11,01,15,40,285.20
2022,11,01,15,41,280.50
2022,11,01,15,42,277.50
2022,11,01,15,43,274.30
2022,11,01,15,44,272.00
2022,11,01,15,45,271.30
2022,11,01,15,46,268.10
2022,11,01,15,47,265.10
2022,11,01,15,48,261.40
2022,11,01,15,49,258.00
2022,11,01,15,50,257.60
2022,11,01,15,51,255.90
2022,11,01,15,52,253.60
2022,11,01,15,53,251.40
2022,11,01,15,54,250.90
2022,11,01,15,55,249.60
2022,11,01,15,56,246.00
2022,11,01,15,57,245.20
2022,11,01,15,58,244.00
2022,11,01,15,59,237.20
2022,11,01,16,00,234.00
2022,11,01,16,01,234.00
2022,11,01,16,02,161.10
2022,11,01,16,03,229.70
2022,11,01,16,04,228.10
2022,11,01,16,05,225.90
2022,11,01,16,06,222.50
2022,11,01,16,07,220.20
2022,11,01,16,08,217.80
2022,11,01,16,09,211.50
2022,11,01,16,10,214.00
2022,11,01,16,11,204.70
2022,11,01,16,12,201.40
2022,11,01,16,13,207.60
2022,11,01,16,14,206.20
2022,11,01,16,15,206.00
2022,11,01,16,16,203.70
2022,11,01,16,17,201.50
2022,11,01,16,18,198.70
2022,11,01,16,19,188.10
2022,11,01,16,20,167.70
2022,11,01,16,21,183.70
2022,11,01,16,22,188.10
2022,11,01,16,23,184.70
2022,11,01,16,24,182.50
2022,11,01,16,25,180.20
2022,11,01,16,26,177.40
2022,11,01,16,27,174.60
2022,11,01,16,28,172.40
2022,11,01,16,29,169.20
2022,11,01,16,30,166.70
2022,11,01,16,31,164.40
2022,11,01,16,32,162.60
2022,11,01,16,33,160.00
2022,11,01,16,34,156.70
2022,11,01,16,35,153.70
2022,11,01,16,36,148.50
2022,11,01,16,37,141.80
2022,11,01,16,38,139.40
2022,11,01,16,39,129.60
2022,11,01,16,40,104.50
2022,11,01,16,41,80.50
2022,11,01,16,42,67.40
2022,11,01,16,43,65.00
2022,11,01,16,44,62.20
2022,11,01,16,45,56.20
2022,11,01,16,46,47.70
2022,11,01,16,47,39.40
2022,11,01,16,48,34.30
2022,11,01,16,49,30.60
2022,11,01,16,50,28.10
2022,11,01,16,51,25.90
2022,11,01,16,52,25.00
2022,11,01,16,53,25.00
2022,11,01,16,54,25.00
2022,11,01,16,55,23.60
2022,11,01,16,56,23.00
2022,11,01,16,57,23.00
2022,11,01,16,58,23.00
2022,11,01,16,59,22.50
2022,11,01,17,00,21.00
2022,11,01,17,01,21.00
2022,11,01,17,02,21.00
2022,11,01,17,03,21.00
2022,11,01,17,04,21.00
2022,11,01,17,05,21.00
2022,11,01,17,06,21.00
2022,11,01,17,07,21.00
2022,11,01,17,08,21.00
2022,11,01,17,09,21.00
2022,11,01,17,10,21.00
2022,11,01,17,11,21.00
2022,11,01,17,12,21.00
2022,11,01,17,13,21.00
2022,11,01,17,14,21.00
2022,11,01,17,15,21.00
2022,11,01,17,16,21.00
2022,11,01,17,17,21.00
2022,11,01,17,18,21.00
2022,11,01,17,19,21.00
2022,11,01,17,20,21.00
2022,11,01,17,21,20.30
2022,11,01,17,22,19.00
2022,11,01,17,23,19.00